McCook, NE

1:36 AM CDT on May 30, 2017 (GMT -0500)
McCook Municipal

Weather History for KMCK - August, 2012

Change the Weather History Date:

Saturday, August 11, 2012

  Actual Average Record
Temperature  
Mean Temperature 78 °F 75 °F  
Max Temperature 96 °F 88 °F 108 °F (1936)
Min Temperature 59 °F 61 °F 46 °F (1931)
Cooling Degree Days 12    
Growing Degree Days 26 (Base 50)    
Moisture  
Dew Point 52 °F    
Average Humidity 47    
Maximum Humidity 72    
Minimum Humidity 22    
Precipitation  
Precipitation 0.00 in 0.12 in 3.11 in (1980)
Month to date precipitation 0.15 1.31  
Year to date precipitation 7.33 15.88  
Sea Level Pressure  
Sea Level Pressure 29.92 in    
Wind  
Wind Speed 10 mph (SE)    
Max Wind Speed 22 mph    
Max Gust Speed 29 mph    
Visibility 10 miles    
Events Thunderstorm    
T = Trace of Precipitation, MM = Missing Value Source: NWS Daily Summary

Daily Weather History Graph

Daily Weather History Graph

Search for Another Location

Airport or City:

Trip Planner

Search our weather history database for the weather conditions in past years. The results will help you decide how hot, cold, wet, or windy it might be!

Date:

Astronomy

Aug. 11, 2012 Rise Set
Actual Time 6:50 AM CDT 8:43 PM CDT
Civil Twilight 6:20 AM CDT 9:13 PM CDT
Nautical Twilight 5:44 AM CDT 9:49 PM CDT
Astronomical Twilight 5:06 AM CDT 10:27 PM CDT
Moon 1:19 AM CDT (8/11) 4:20 PM CDT (8/11)
Length of Visible Light 14h 52m
Length of Day
13h 53m
Waning Crescent, 32% of the Moon is Illuminated
Aug 11
Waning Crescent
Aug 17
New
Aug 24
First Quarter
Aug 31
Full
Sep 8
Last Quarter

Hourly Weather History & Observations

Time (CDT) Temp. Heat Index Dew Point Humidity Pressure Visibility Wind Dir Wind Speed Gust Speed Precip Events Conditions
12:53 AM 66.0 °F - 54.0 °F 65% 30.01 in 10.0 mi East 9.2 mph - N/A   Clear
1:53 AM 63.0 °F - 52.0 °F 67% 30.01 in 10.0 mi East 5.8 mph - N/A   Clear
2:53 AM 62.1 °F - 52.0 °F 70% 30.00 in 10.0 mi ESE 8.1 mph - N/A   Clear
3:53 AM 61.0 °F - 51.1 °F 70% 30.01 in 10.0 mi ESE 6.9 mph - N/A   Clear
4:53 AM 61.0 °F - 51.1 °F 70% 30.00 in 10.0 mi ESE 6.9 mph - N/A   Mostly Cloudy
5:53 AM 60.1 °F - 51.1 °F 72% 29.99 in 10.0 mi ESE 8.1 mph - N/A   Clear
6:53 AM 60.1 °F - 50.0 °F 69% 29.99 in 10.0 mi ESE 8.1 mph - N/A   Scattered Clouds
7:53 AM 62.1 °F - 48.9 °F 62% 29.99 in 10.0 mi ESE 8.1 mph - N/A   Clear
8:53 AM 69.1 °F - 48.0 °F 47% 29.99 in 10.0 mi SSE 10.4 mph - N/A   Clear
9:53 AM 75.9 °F - 46.0 °F 35% 29.96 in 10.0 mi SSE 16.1 mph 28.8 mph N/A   Clear
10:53 AM 79.0 °F - 46.9 °F 32% 29.94 in 10.0 mi SSE 16.1 mph 25.3 mph N/A   Clear
11:53 AM 82.0 °F - 48.0 °F 30% 29.92 in 10.0 mi SSE 15.0 mph 26.5 mph N/A   Clear
12:53 PM 84.0 °F - 48.9 °F 29% 29.89 in 10.0 mi South 16.1 mph - N/A   Clear
1:53 PM 89.1 °F - 48.9 °F 25% 29.87 in 10.0 mi SSE 21.9 mph 27.6 mph N/A   Clear
2:53 PM 91.9 °F - 48.9 °F 23% 29.84 in 10.0 mi SSE 16.1 mph 24.2 mph N/A   Clear
3:53 PM 93.0 °F - 48.9 °F 22% 29.82 in 10.0 mi South 15.0 mph 25.3 mph N/A   Clear
4:53 PM 93.0 °F - 51.1 °F 24% 29.81 in 10.0 mi SSW 11.5 mph 20.7 mph N/A   Clear
5:53 PM 91.9 °F - 51.1 °F 25% 29.79 in 10.0 mi South 11.5 mph - N/A   Clear
6:53 PM 89.1 °F - 51.1 °F 27% 29.78 in 10.0 mi South 6.9 mph - N/A   Clear
7:53 PM 88.0 °F 85.7 °F 53.1 °F 30% 29.79 in 10.0 mi East 3.5 mph - N/A   Scattered Clouds
8:53 PM 79.0 °F - 54.0 °F 42% 29.82 in 9.0 mi Calm Calm - N/A   Partly Cloudy
9:53 PM 77.0 °F - 55.9 °F 48% 29.83 in 10.0 mi SSE 5.8 mph - N/A   Mostly Cloudy
10:23 PM 77.0 °F - 55.4 °F 47% 29.93 in 10.0 mi NW 3.5 mph - N/A Thunderstorm Mostly Cloudy
10:45 PM 75.2 °F - 57.2 °F 53% 29.97 in 10.0 mi North 13.8 mph - N/A   Mostly Cloudy
10:53 PM 75.0 °F - 57.0 °F 53% 29.91 in 10.0 mi North 10.4 mph - N/A Thunderstorm Mostly Cloudy
11:16 PM 73.4 °F - 57.2 °F 57% 29.99 in 10.0 mi WNW 8.1 mph - N/A   Partly Cloudy
11:53 PM 70.0 °F - 57.0 °F 63% 29.91 in 10.0 mi NE 4.6 mph - N/A   Clear